Regional Weather Roundup
Issued by NWS

Home | Current Version | Previous Version | Text Only | Print | Product List | Glossary On
Versions: 1 2 3 4 5 6 7 8 9 10 11 12 13 14 15 16 17 18 19 20 21 22 23 24 25 26 27 28 29 30 31 32 33 34 35 36 37 38 39 40 41 42 43 44 45 46 47 48 49 50
000
ASUS43 KTOP 280008
RWRKS

WEATHER ROUNDUP FOR KANSAS
NATIONAL WEATHER SERVICE GOODLAND KS
700 PM CDT WED JUL 27 2016

NOTE:  "FAIR" INDICATES FEW OR NO CLOUDS BELOW 12,000 FEET WITH NO
SIGNIFICANT WEATHER AND/OR OBSTRUCTIONS TO VISIBILITY.

KSZ001>006-013>018-027>032-041>047-280100-
NORTHWEST KANSAS

CITY           SKY/WX    TMP DP  RH WIND       PRES   REMARKS
GOODLAND       SUNNY     89  57  33 SE10      30.04F
6HR MIN TEMP:  83; 6HR MAX TEMP:  91;

HAYS           CLOUDY    91  64  40 E7        29.95F
HILL CITY      SUNNY     88  67  49 E8        29.97F
6HR MIN TEMP:  78; 6HR MAX TEMP:  90; 6HR PCP:  0.05;

RUSSELL        MOSUNNY   91  65  41 SE8       29.93F
6HR MIN TEMP:  86; 6HR MAX TEMP:  93;

$$

KSZ061>065-074>080-084>089-280100-
SOUTHWEST KANSAS

CITY           SKY/WX    TMP DP  RH WIND       PRES   REMARKS
DODGE CITY     CLOUDY    76  64  66 S6        29.99F
6HR MIN TEMP:  72; 6HR MAX TEMP:  94; 6HR PCP:  0.11;

ELKHART          N/A     70  58  66 SE8         N/A
GARDEN CITY    CLOUDY    85  60  42 NE7       29.98R
6HR MIN TEMP:  82; 6HR MAX TEMP:  92; 6HR PCP: TRACE;

GREAT BEND     MOSUNNY   90  64  43 E3        29.94S
LIBERAL        CLOUDY    79  64  61 N15G25    30.07R THUNDER
PRATT          SUNNY     87  62  42 E6        29.96S
6HR MIN TEMP:  86; 6HR MAX TEMP:  92;

$$

KSZ066>073-081>083-090>101-280100-
SOUTHEAST KANSAS

CITY           SKY/WX    TMP DP  RH WIND       PRES   REMARKS
CHANUTE        SUNNY     91  73  55 CALM      29.91F HX  99
6HR MIN TEMP:  87; 6HR MAX TEMP:  93;

COFFEYVILLE    PTSUNNY   92  71  50 N5        29.91R HX  98
6HR MIN TEMP:  85; 6HR MAX TEMP:  93;

HUTCHINSON     SUNNY     91  69  48 E6        29.93F HX  96
6HR MIN TEMP:  89; 6HR MAX TEMP:  95;

MEDICINE LODGE   N/A     93  63  36 E12       29.93S
NEWTON         SUNNY     87  72  60 E5        29.94F
PARSONS        CLOUDY    90  74  59 N3        29.92S HX  99
6HR MIN TEMP:  86; 6HR MAX TEMP:  92;

WICHITA INTL   PTSUNNY   92  68  45 NE8       29.92F HX  96
6HR MIN TEMP:  88; 6HR MAX TEMP:  95;

WICHITA JABRA  MOSUNNY   87  73  62 NE5       29.93F
6HR MIN TEMP:  85; 6HR MAX TEMP:  92;

WICHITA MCCONL SUNNY     91  71  51 E7        29.92F HX  97
WINFIELD       MOSUNNY   91  71  51 E9        29.92F HX  97
6HR MIN TEMP:  87; 6HR MAX TEMP:  94;

$$

KSZ007>012-019>026-033>040-048>060-102>105-280100-
NORTHEAST KANSAS

CITY           SKY/WX    TMP DP  RH WIND       PRES   REMARKS
CONCORDIA      MOSUNNY   88  68  51 E3        29.94F
6HR MIN TEMP:  83; 6HR MAX TEMP:  89;

EMPORIA        PTSUNNY   88  72  58 E6        29.92F
6HR MIN TEMP:  86; 6HR MAX TEMP:  91;

LAWRENCE       MOSUNNY   85  76  74 CALM      29.91F
6HR MIN TEMP:  85; 6HR MAX TEMP:  92;

MANHATTAN      SUNNY     91  67  44 CALM      29.92F
6HR MIN TEMP:  85; 6HR MAX TEMP:  91;

MARYSVILLE     CLOUDY    90  64  43 N5        29.93F
OLATHE IND     SUNNY     89  66  46 NW7       29.93S
6HR MIN TEMP:  88; 6HR MAX TEMP:  92;

OLATHE EXE     MOSUNNY   89  63  41 NW6       29.92F
6HR MIN TEMP:  87; 6HR MAX TEMP:  92;

SALINA         SUNNY     92  67  43 E7        29.93F HX  95
6HR MIN TEMP:  89; 6HR MAX TEMP:  95;

TOPEKA BILLARD   N/A     89  72  56 E7        29.91F HX  96
6HR MIN TEMP:  88; 6HR MAX TEMP:  93;

TOPEKA FORBES  CLOUDY    89  70  53 E3        29.92F
6HR MIN TEMP:  88; 6HR MAX TEMP:  93;

$$




USA.gov is the U.S. government's official web portal to all federal, state and local government web resources and services.